Find Starlink 3612

NORAD ID: 51770 Int'l Des: 2022-017 Owner: SPXS Country: US Constellation: starlink operational
LEOCIRCULAR

リアルタイム位置

3D地球を読み込み中...

Starlink 3612について

説明を読み込み中...

次回通過

Passes for default location (London). Set your location on the main map for personalized predictions.

高度履歴

Loading altitude history...

軌道要素

1 51770U 22017C 26127.83579321 .00000459 00000-0 46930-4 0 9992
2 51770 53.2178 73.6035 0001369 90.3768 269.7381 15.08838079231544
Epoch: May 7, 2026 • Age: 5 hours

現在のステータス

高度 543.8 km
速度 7.60 km/s
衛星直下点 46.08°N, 43.94°W
打ち上げ日 Feb 25, 2022
運用期間 4.1 years
タイプ internet

技術仕様

分類 Payload
質量 297.00 kg
乾燥質量 275.00 kg
総質量 297.00 kg
長さ 0.20 m
直径 2.80 m
スパン 9.00 m
形状 Box + pan
製造者 SPXS
バスタイプ Starlink
フェーズステータス In Orbit
所有者/国 SPXS/US

Most Searched